Hourly Data Report for April 26, 2015

All times are specified in Local Standard Time (LST). Add 1 hour to adjust for Daylight Saving Time where and when it is observed.

Metadata including Station Name, Province, Latitude, Longitude, Elevation, Climate ID, WMO ID, TC ID
LUNENBURG
NOVA SCOTIA
Latitude: 44°21'36.094" N Longitude: 64°17'46.082" W Elevation: 3.80 m
Climate ID: 8203210 WMO ID: TC ID: XLB
Hourly Data Report for April 26, 2015
Temp Definition
°C

Dew Point Temp Definition
°C

Rel Hum Definition
%

Wind Dir Definition
10's deg
Wind Spd Definition
km/h

Visibility Definition
km

Stn Press Definition
kPa

Hmdx Definition

Wind Chill Definition

Weather Definition

00:00 2.0 LegendMM LegendMM 29 9 100.26 LegendNANA
01:00 2.0 LegendMM LegendMM 33 5 100.25 LegendNANA
02:00 1.3 LegendMM LegendMM 28 9 100.24 LegendNANA
03:00 1.6 LegendMM LegendMM 31 6 100.21 LegendNANA
04:00 0.9 LegendMM LegendMM   0 100.18 LegendNANA
05:00 0.9 LegendMM LegendMM 32 7 100.21 LegendNANA
06:00 0.7 LegendMM LegendMM 34 4 100.23 LegendNANA
07:00 1.4 LegendMM LegendMM 33 5 100.22 LegendNANA
08:00 3.2 LegendMM LegendMM 0 1 100.22 LegendNANA
09:00 4.3 LegendMM LegendMM 23 6 100.18 LegendNANA
10:00 5.9 LegendMM LegendMM 16 8 100.15 LegendNANA
11:00 5.5 LegendMM LegendMM 16 16 100.09 LegendNANA
12:00 6.4 LegendMM LegendMM 14 18 100.06 LegendNANA
13:00 6.9 LegendMM LegendMM 18 14 100.08 LegendNANA
14:00 6.5 LegendMM LegendMM 22 14 100.07 LegendNANA
15:00 6.5 LegendMM LegendMM 24 9 100.02 LegendNANA
16:00 7.2 LegendMM LegendMM 22 15 99.99 LegendNANA
17:00 7.1 LegendMM LegendMM 22 17 99.97 LegendNANA
18:00 6.9 LegendMM LegendMM 23 9 99.98 LegendNANA
19:00 6.3 LegendMM LegendMM 26 9 99.97 LegendNANA
20:00 6.3 LegendMM LegendMM 36 6 100.00 LegendNANA
21:00 5.9 LegendMM LegendMM 36 7 99.99 LegendNANA
22:00 5.7 LegendMM LegendMM 33 9 99.94 LegendNANA
23:00 5.1 LegendMM LegendMM 31 8 99.90 LegendNANA

Notes on Data Quality.

Legend
  • E = Estimated
  • M = Missing
  • NA = Not Available
  • ‡ = Partner data that is not subject to review by the National Climate Archives